Weather History for Boonville, MO

Change the Weather History Date:

Wednesday, December 12, 2012

  Actual Average Record
Temperature  
Mean Temperature 38 °F -  
Max Temperature 51 °F 41 °F 71 °F (1949)
Min Temperature 24 °F 24 °F -6 °F (1962)
Degree Days  
Heating Degree Days 28    
Moisture  
Dew Point 17 °F    
Average Humidity 50    
Maximum Humidity 78    
Minimum Humidity 19    
Precipitation  
Precipitation 0.00 in - - ()
Sea Level Pressure  
Sea Level Pressure 30.21 in    
Wind  
Wind Speed 7 mph (SSE)    
Max Wind Speed 14 mph    
Max Gust Speed 21 mph    
Visibility 10 miles    
Events      
Averages and records for this station are not official NWS values.
T = Trace of Precipitation, MM = Missing Value Source: NWS Daily Summary

Daily Weather History Graph

Daily Weather History Graph

Search for Another Location

Airport:

Trip Planner

Search our weather history database for the weather conditions in past years. The results will help you decide how hot, cold, wet, or windy it might be!

Date:

Astronomy

Dec. 12, 2012 Rise Set
Actual Time 7:20 AM CST 4:48 PM CST
Civil Twilight 6:50 AM CST 5:18 PM CST
Nautical Twilight 6:17 AM CST 5:52 PM CST
Astronomical Twilight 5:44 AM CST 6:24 PM CST
Moon 6:25 AM CST (12/12) 4:26 PM CST (12/12)
Length of Visible Light 10h 28m
Length of Day
9h 28m
Waning Crescent, 1% of the Moon is Illuminated
Dec 12
Waning Crescent
Dec 13
New
Dec 19
First Quarter
Dec 28
Full
Jan 4
Last Quarter

Hourly Weather History & Observations

Time (CST) Temp. Windchill Dew Point Humidity Pressure Visibility Wind Dir Wind Speed Gust Speed Precip Events Conditions
12:15 AM 28.6 °F 23.5 °F 19.2 °F 68% 30.18 in 10.0 mi South 4.6 mph - N/A   Clear
12:35 AM 29.1 °F 24.1 °F 19.2 °F 67% 30.18 in 10.0 mi SSE 4.6 mph - N/A   Clear
12:55 AM 27.9 °F 20.6 °F 18.9 °F 69% 30.17 in 10.0 mi SSE 6.9 mph - N/A   Clear
1:15 AM 26.6 °F 20.0 °F 18.7 °F 72% 30.17 in 10.0 mi South 5.8 mph - N/A   Clear
1:35 AM 26.8 °F 20.2 °F 18.5 °F 71% 30.18 in 10.0 mi SSE 5.8 mph - N/A   Clear
1:55 AM 26.6 °F 19.1 °F 18.5 °F 71% 30.18 in 10.0 mi SSE 6.9 mph - N/A   Clear
2:15 AM 26.6 °F 20.0 °F 18.3 °F 71% 30.18 in 10.0 mi SSE 5.8 mph - N/A   Clear
2:35 AM 26.2 °F 19.6 °F 18.1 °F 71% 30.19 in 10.0 mi SSE 5.8 mph - N/A   Clear
2:55 AM 25.7 °F 19.0 °F 17.8 °F 72% 30.19 in 10.0 mi SSE 5.8 mph - N/A   Clear
3:15 AM 25.0 °F 17.1 °F 17.8 °F 74% 30.19 in 10.0 mi SSE 6.9 mph - N/A   Clear
3:35 AM 24.8 °F 17.9 °F 18.1 °F 76% 30.19 in 10.0 mi SSE 5.8 mph - N/A   Clear
3:55 AM 24.4 °F 18.6 °F 18.0 °F 76% 30.19 in 10.0 mi SSE 4.6 mph - N/A   Clear
4:15 AM 24.1 °F 17.0 °F 18.1 °F 78% 30.18 in 10.0 mi SSE 5.8 mph - N/A   Clear
4:35 AM 24.3 °F 18.4 °F 18.3 °F 78% 30.18 in 10.0 mi SSE 4.6 mph - N/A   Clear
4:55 AM 25.2 °F 18.3 °F 18.9 °F 77% 30.19 in 10.0 mi South 5.8 mph - N/A   Clear
5:15 AM 25.5 °F 17.8 °F 19.0 °F 76% 30.19 in 10.0 mi SSE 6.9 mph - N/A   Clear
5:35 AM 24.3 °F 17.3 °F 18.3 °F 78% 30.20 in 10.0 mi SSE 5.8 mph - N/A   Clear
5:55 AM 24.4 °F 17.5 °F 18.5 °F 78% 30.21 in 10.0 mi South 5.8 mph - N/A   Clear
6:15 AM 25.0 °F 19.3 °F 18.7 °F 77% 30.22 in 10.0 mi SSE 4.6 mph - N/A   Clear
6:35 AM 24.6 °F - 18.3 °F 77% 30.22 in 10.0 mi Calm Calm - N/A   Clear
6:55 AM 25.2 °F 17.3 °F 18.3 °F 75% 30.23 in 10.0 mi South 6.9 mph - N/A   Clear
7:15 AM 25.7 °F 19.0 °F 18.5 °F 74% 30.23 in 10.0 mi South 5.8 mph - N/A   Clear
7:35 AM 25.7 °F 18.0 °F 18.5 °F 74% 30.23 in 10.0 mi SSE 6.9 mph - N/A   Clear
7:55 AM 26.6 °F 20.0 °F 19.0 °F 73% 30.23 in 10.0 mi South 5.8 mph - N/A   Clear
8:15 AM 28.4 °F 22.2 °F 19.9 °F 71% 30.24 in 10.0 mi SSE 5.8 mph - N/A   Clear
8:35 AM 30.2 °F 23.4 °F 20.7 °F 68% 30.24 in 10.0 mi SSE 6.9 mph - N/A   Clear
8:55 AM 31.8 °F 25.4 °F 21.0 °F 64% 30.24 in 10.0 mi SSE 6.9 mph - N/A   Clear
9:15 AM 33.6 °F 28.4 °F 21.4 °F 61% 30.25 in 10.0 mi South 5.8 mph - N/A   Clear
9:35 AM 36.0 °F 31.1 °F 22.5 °F 58% 30.26 in 10.0 mi South 5.8 mph - N/A   Clear
9:55 AM 38.8 °F 33.8 °F 22.5 °F 52% 30.26 in 10.0 mi South 6.9 mph - N/A   Clear
10:15 AM 40.6 °F 36.0 °F 21.0 °F 46% 30.27 in 10.0 mi SSW 6.9 mph - N/A   Clear
10:35 AM 42.3 °F 37.9 °F 21.0 °F 43% 30.27 in 10.0 mi South 6.9 mph - N/A   Clear
10:55 AM 44.2 °F 39.7 °F 20.3 °F 39% 30.27 in 10.0 mi SSW 8.1 mph - N/A   Clear
11:15 AM 46.0 °F 41.0 °F 17.6 °F 32% 30.27 in 10.0 mi South 10.4 mph - N/A   Clear
11:35 AM 47.3 °F - 17.4 °F 30% 30.26 in 10.0 mi SSW 10.4 mph - N/A   Clear
11:55 AM 48.4 °F - 16.7 °F 28% 30.25 in 10.0 mi SSW 9.2 mph - N/A   Clear
12:15 PM 49.3 °F - 16.0 °F 27% 30.24 in 10.0 mi South 10.4 mph - N/A   Clear
12:35 PM 50.2 °F - 15.3 °F 25% 30.23 in 10.0 mi South 11.5 mph - N/A   Clear
12:55 PM 50.9 °F - 13.6 °F 23% 30.23 in 10.0 mi SSW 9.2 mph - N/A   Unknown
1:15 PM 51.1 °F - 12.6 °F 21% 30.22 in 10.0 mi South 12.7 mph 18.4 mph N/A   Unknown
1:35 PM 51.1 °F - 11.1 °F 20% 30.21 in 10.0 mi South 13.8 mph 18.4 mph N/A   Unknown
1:55 PM 51.1 °F - 10.9 °F 20% 30.19 in 10.0 mi South 10.4 mph 19.6 mph N/A   Unknown
2:15 PM 51.4 °F - 10.6 °F 19% 30.19 in 10.0 mi SSW 12.7 mph 17.3 mph N/A   Clear
2:35 PM 51.6 °F - 10.4 °F 19% 30.19 in 10.0 mi South 9.2 mph - N/A   Clear
2:55 PM 51.8 °F - 11.1 °F 20% 30.19 in 10.0 mi SSW 13.8 mph 20.7 mph N/A   Clear
3:15 PM 51.3 °F - 11.8 °F 21% 30.19 in 10.0 mi South 8.1 mph 18.4 mph N/A   Clear
3:35 PM 51.1 °F - 12.7 °F 22% 30.19 in 10.0 mi South 12.7 mph - N/A   Clear
3:55 PM 50.5 °F - 13.1 °F 22% 30.19 in 10.0 mi South 9.2 mph - N/A   Clear
4:15 PM 49.5 °F - 14.2 °F 24% 30.19 in 10.0 mi South 10.4 mph - N/A   Clear
4:35 PM 47.8 °F - 14.9 °F 27% 30.18 in 10.0 mi South 10.4 mph - N/A   Clear
4:55 PM 45.9 °F 42.3 °F 15.1 °F 29% 30.18 in 10.0 mi South 6.9 mph - N/A   Clear
5:15 PM 43.9 °F 39.9 °F 15.1 °F 31% 30.18 in 10.0 mi SSE 6.9 mph - N/A   Clear
6:15 PM 40.8 °F 36.9 °F 14.9 °F 35% 30.18 in 10.0 mi SE 5.8 mph - N/A   Clear
6:35 PM 39.4 °F 34.5 °F 15.6 °F 38% 30.18 in 10.0 mi SE 6.9 mph - N/A   Clear
6:55 PM 38.1 °F 32.3 °F 16.7 °F 42% 30.18 in 10.0 mi SE 8.1 mph - N/A   Clear
7:15 PM 37.0 °F 30.4 °F 16.9 °F 44% 30.18 in 10.0 mi SSE 9.2 mph - N/A   Clear
7:35 PM 36.1 °F 29.3 °F 17.1 °F 46% 30.18 in 10.0 mi SE 9.2 mph - N/A   Clear
7:55 PM 36.1 °F 29.9 °F 17.2 °F 46% 30.18 in 10.0 mi SE 8.1 mph - N/A   Clear
8:15 PM 36.1 °F 29.3 °F 16.5 °F 45% 30.18 in 10.0 mi SSE 9.2 mph - N/A   Clear
8:35 PM 36.3 °F 30.8 °F 16.5 °F 45% 30.19 in 10.0 mi SSE 6.9 mph - N/A   Clear
8:55 PM 36.7 °F 30.5 °F 16.2 °F 43% 30.19 in 10.0 mi SSE 8.1 mph - N/A   Clear
9:35 PM 37.6 °F 30.5 °F 16.7 °F 43% 30.19 in 10.0 mi SSE 10.4 mph - N/A   Clear
9:55 PM 38.1 °F 30.7 °F 16.9 °F 42% 30.18 in 10.0 mi SSE 11.5 mph 17.3 mph N/A   Clear
10:15 PM 38.3 °F 32.5 °F 16.7 °F 42% 30.21 in 10.0 mi South 8.1 mph - N/A   Clear
10:35 PM 37.8 °F 31.8 °F 16.9 °F 43% 30.22 in 10.0 mi SSE 8.1 mph - N/A   Clear
10:55 PM 37.6 °F 31.6 °F 16.5 °F 42% 30.22 in 10.0 mi SSE 8.1 mph - N/A   Clear
11:15 PM 36.9 °F 31.4 °F 16.3 °F 43% 30.22 in 10.0 mi SSE 6.9 mph - N/A   Clear
11:35 PM 36.5 °F 30.3 °F 16.3 °F 44% 30.23 in 10.0 mi SSE 8.1 mph - N/A   Clear
11:55 PM 35.2 °F 28.8 °F 16.7 °F 47% 30.23 in 10.0 mi SSE 8.1 mph - N/A   Clear